FW3096 Weather Reports


Display with metric or nautical units.
time (UTC)temp
F
wind
direction
speed
MPH
gust
MPH
rain 1hr
in
rain 24hr
in
rain mn
in
humidity
%
barometer
mb
20260904034507 76 200 0.0 1.0 0.00 0.68 0.68 93 1014.0
20260904033505 76 200 0.0 0.0 0.00 0.68 0.68 93 1014.0
20260904033008 76 200 0.0 0.0 0.00 0.68 0.68 93 1014.2
20260904032505 76 200 0.0 1.0 0.00 0.68 0.68 93 1014.3
20260904032006 76 200 0.0 1.0 0.00 0.68 0.68 93 1014.3
20260904031006 76 200 0.0 0.0 0.00 0.68 0.68 93 1014.4
20260904030507 76 200 0.0 0.0 0.00 0.68 0.68 93 1014.4
20260904030011 77 200 0.0 0.0 0.00 0.68 0.68 93 1014.4
20260904025008 77 200 0.0 0.0 0.00 0.68 0.68 93 1014.5
20260904024510 77 200 0.0 0.0 0.00 0.68 0.68 92 1014.6
20260904024007 77 200 0.0 0.0 0.00 0.68 0.68 92 1014.6
20260904023505 77 200 0.0 0.0 0.00 0.68 0.68 92 1014.5
20260904023010 77 200 0.0 1.0 0.00 0.68 0.68 92 1014.5
20260904022505 77 200 0.0 1.0 0.00 0.68 0.68 92 1014.3
20260904021505 77 200 0.0 0.0 0.00 0.68 0.68 92 1014.5
20260904021008 77 200 0.0 0.0 0.00 0.68 0.68 91 1014.5
20260904020505 77 200 0.0 0.0 0.00 0.68 0.68 91 1014.4
20260904020007 77 200 0.0 0.0 0.00 0.68 0.68 91 1014.4
20260904015507 77 200 0.0 0.0 0.00 0.68 0.68 91 1014.3
20260904014009 78 200 0.0 0.0 0.00 0.68 0.68 91 1014.4
20260904013505 78 200 0.0 0.0 0.00 0.68 0.68 91 1014.5
20260904012506 78 200 0.0 0.0 0.00 0.68 0.68 90 1014.6
20260904012006 78 200 0.0 0.0 0.00 0.68 0.68 90 1014.8
20260904011505 78 200 0.0 0.0 0.00 0.68 0.68 90 1015.0
20260904010007 79 200 0.0 0.0 0.00 0.68 0.68 90 1015.2
20260904005510 79 200 0.0 0.0 0.00 0.68 0.68 90 1014.9
20260904005005 79 200 0.0 0.0 0.00 0.68 0.68 89 1014.9
20260904004005 79 200 0.0 0.0 0.00 0.68 0.68 89 1014.9
20260904003504 79 182 0.0 0.0 0.00 0.68 0.68 89 1014.9
20260904003010 79 182 0.0 0.0 0.00 0.68 0.68 89 1014.8
20260904002505 79 182 0.0 0.0 0.00 0.68 0.68 89 1014.8
20260904002005 79 182 0.0 0.0 0.00 0.68 0.68 88 1014.6
20260904001506 80 182 0.0 0.0 0.00 0.68 0.68 88 1014.6
20260904001006 80 182 0.0 0.0 0.00 0.68 0.68 88 1014.4
20260904000505 80 182 0.0 0.0 0.00 0.68 0.68 88 1014.3
20260904000007 80 182 0.0 0.0 0.00 0.68 0.68 88 1014.3
20260903235504 80 182 0.0 2.0 0.00 0.68 0.68 88 1014.3
20260903235005 80 182 0.0 2.0 0.00 0.68 0.68 88 1014.3
20260903234505 80 182 0.0 1.0 0.00 0.68 0.68 88 1014.4
20260903234006 80 182 0.0 1.0 0.00 0.68 0.68 88 1014.5
20260903233506 80 182 0.0 3.0 0.00 0.68 0.68 88 1014.6
20260903232504 80 232 0.0 2.0 0.00 0.68 0.68 87 1014.5
20260903232006 81 232 0.0 2.0 0.00 0.68 0.68 87 1014.3
20260903231006 81 223 0.0 2.0 0.00 0.68 0.68 87 1014.3
20260903230506 81 223 0.0 5.0 0.00 0.68 0.68 87 1014.4
20260903230006 81 164 1.0 5.0 0.00 0.68 0.68 87 1014.1
20260903225505 82 5 0.0 1.0 0.00 0.68 0.68 86 1014.2
20260903225006 82 5 0.0 3.0 0.00 0.68 0.68 86 1014.2
20260903224504 82 5 1.0 3.0 0.00 0.68 0.68 85 1014.1
20260903224005 83 160 0.0 3.0 0.00 0.68 0.68 85 1014.0
20260903223506 83 190 0.0 0.0 0.00 0.68 0.68 85 1013.9
20260903223005 83 190 0.0 2.0 0.00 0.68 0.68 84 1013.9
20260903221504 84 302 1.0 4.0 0.00 0.68 0.68 83 1014.0
20260903221006 84 184 1.0 3.0 0.00 0.68 0.68 82 1014.0
20260903220504 84 331 1.0 5.0 0.00 0.68 0.68 81 1014.1
20260903220009 84 135 1.0 5.0 0.00 0.68 0.68 81 1014.1
20260903215504 85 205 1.0 4.0 0.00 0.68 0.68 81 1014.0
20260903215005 85 249 1.0 4.0 0.00 0.68 0.68 81 1013.9
20260903214506 84 58 1.0 4.0 0.00 0.68 0.68 81 1013.8
20260903214005 85 230 1.0 4.0 0.00 0.68 0.68 80 1013.7
20260903213007 85 184 1.0 4.0 0.00 0.68 0.68 81 1013.6
20260903211506 86 286 1.0 5.0 0.00 0.68 0.68 78 1013.6
20260903210504 86 238 0.0 3.0 0.00 0.68 0.68 78 1013.6
20260903205006 86 231 1.0 6.0 0.00 0.68 0.68 78 1013.7
20260903204006 86 295 2.0 5.0 0.00 0.68 0.68 76 1013.7
20260903203507 87 181 2.0 5.0 0.00 0.68 0.68 75 1013.7
20260903203010 86 198 1.0 5.0 0.00 0.68 0.68 76 1013.8
20260903202504 86 172 2.0 6.0 0.00 0.68 0.68 75 1013.9
20260903202007 87 318 3.0 6.0 0.00 0.68 0.68 74 1014.1
20260903201505 87 343 1.0 6.0 0.00 0.68 0.68 75 1014.0
20260903200506 87 355 2.0 7.0 0.00 0.68 0.68 72 1014.1
20260903200006 87 344 3.0 9.0 0.00 0.68 0.68 72 1014.2
20260903195504 87 315 2.0 9.0 0.00 0.68 0.68 74 1014.1
20260903195006 87 230 1.0 6.0 0.00 0.68 0.68 75 1014.1
20260903194005 87 333 2.0 5.0 0.00 0.68 0.68 73 1014.1
20260903193506 87 288 2.0 5.0 0.00 0.68 0.68 72 1014.2
20260903193006 87 132 3.0 5.0 0.00 0.68 0.68 72 1014.2
20260903192504 87 242 1.0 5.0 0.00 0.68 0.68 75 1014.3
20260903192006 87 199 3.0 5.0 0.00 0.68 0.68 73 1014.4
20260903191505 87 230 2.0 5.0 0.00 0.68 0.68 73 1014.5
20260903191005 87 267 2.0 13.0 0.00 0.68 0.68 74 1014.6
20260903190508 86 217 3.0 8.0 0.00 0.68 0.68 75 1014.8
20260903190006 86 338 1.0 8.0 0.00 0.71 0.68 76 1014.8
20260903185507 86 36 2.0 6.0 0.00 0.71 0.68 75 1014.9
20260903185006 86 284 2.0 7.0 0.00 0.71 0.68 75 1014.9
20260903184005 85 151 2.0 6.0 0.00 0.71 0.68 76 1015.1
20260903183506 85 200 2.0 6.0 0.00 0.71 0.68 75 1015.2
20260903183005 86 207 2.0 6.0 0.00 0.71 0.68 76 1015.0
20260903182504 85 298 2.0 10.0 0.00 0.71 0.68 77 1014.9
20260903182007 85 170 2.0 7.0 0.00 0.71 0.68 78 1015.0
20260903181504 85 290 4.0 8.0 0.00 0.71 0.68 76 1015.0
20260903181007 85 79 2.0 6.0 0.00 0.71 0.68 77 1015.0
20260903180006 84 5 4.0 10.0 0.00 0.79 0.68 77 1015.0
20260903175005 84 142 2.0 8.0 0.00 0.79 0.68 78 1015.1
20260903174006 84 300 2.0 5.0 0.00 0.79 0.68 80 1015.5
20260903173507 83 244 2.0 5.0 0.00 0.79 0.68 80 1015.5
20260903172509 83 138 1.0 9.0 0.00 0.79 0.68 83 1015.5
20260903172005 82 305 3.0 9.0 0.00 0.79 0.68 81 1015.8
20260903171011 82 177 2.0 6.0 0.00 0.79 0.68 83 1016.0
20260903170505 81 188 1.0 6.0 0.00 0.79 0.68 83 1016.1
20260903170006 82 334 3.0 8.0 0.00 0.79 0.68 82 1016.3
20260903165005 82 319 2.0 11.0 0.00 0.79 0.68 83 1016.3
20260903164505 82 331 2.0 5.0 0.00 0.79 0.68 83 1016.5
20260903164008 82 200 2.0 6.0 0.00 0.79 0.68 83 1016.5
20260903163504 82 317 1.0 9.0 0.00 0.79 0.68 83 1016.4
20260903163009 82 132 2.0 9.0 0.00 0.79 0.68 83 1016.5
20260903162506 83 184 4.0 6.0 0.00 0.79 0.68 81 1016.6
20260903162005 83 360 2.0 9.0 0.00 0.79 0.68 83 1016.7
20260903161504 82 284 3.0 9.0 0.00 0.79 0.68 83 1016.8
20260903161006 82 123 1.0 7.0 0.00 0.79 0.68 85 1016.9
20260903160504 81 282 2.0 7.0 0.00 0.79 0.68 85 1017.1
20260903155504 81 287 2.0 5.0 0.00 0.79 0.68 85 1017.0
20260903155007 81 248 0.0 8.0 0.00 0.79 0.68 86 1017.0
20260903154505 81 251 2.0 8.0 0.00 0.79 0.68 85 1017.1
20260903154006 81 125 1.0 10.0 0.00 0.79 0.68 85 1017.2
20260903153506 82 5 2.0 10.0 0.00 0.79 0.68 85 1017.3
20260903153005 81 299 1.0 6.0 0.00 0.79 0.68 87 1017.3
20260903152506 81 334 1.0 5.0 0.00 0.79 0.68 87 1017.4
20260903152006 80 164 1.0 11.0 0.00 0.79 0.68 88 1017.5
20260903151505 79 266 5.0 11.0 0.00 0.79 0.68 88 1017.6
20260903151005 79 296 2.0 6.0 0.00 0.79 0.68 89 1017.6
20260903150008 79 149 2.0 7.0 0.00 0.79 0.68 88 1017.2
20260903145505 79 77 2.0 7.0 0.00 0.79 0.68 88 1017.2
20260903145005 79 311 3.0 9.0 0.00 0.79 0.68 90 1017.1
20260903144508 79 281 3.0 9.0 0.00 0.79 0.68 89 1017.1
20260903144005 78 24 1.0 8.0 0.00 0.79 0.68 90 1016.9
20260903143504 78 297 1.0 8.0 0.00 0.79 0.68 91 1016.7
20260903143007 78 42 2.0 5.0 0.00 0.79 0.68 91 1016.8
20260903142005 77 246 2.0 5.0 0.00 0.79 0.68 93 1016.9
20260903141506 76 250 1.0 9.0 0.00 0.79 0.68 93 1017.0
20260903140505 76 351 1.0 5.0 0.00 0.79 0.68 94 1017.1
20260903140007 76 344 3.0 8.0 0.00 0.79 0.68 95 1017.0
20260903135005 76 265 3.0 7.0 0.00 0.79 0.68 96 1016.8
20260903134505 75 196 1.0 5.0 0.00 0.79 0.68 97 1016.8
20260903134007 75 234 2.0 5.0 0.00 0.79 0.68 98 1016.7
20260903133505 74 131 0.0 3.0 0.00 0.79 0.68 99 1016.6
20260903133005 74 173 1.0 4.0 0.00 0.79 0.68 99 1016.6
20260903131504 73 192 2.0 4.0 0.00 0.79 0.68 100 1016.3
20260903131006 73 280 1.0 6.0 0.00 0.79 0.68 99 1016.3
20260903130504 72 323 1.0 6.0 0.00 0.79 0.68 99 1016.5
20260903130005 72 250 1.0 3.0 0.00 0.79 0.68 99 1016.6
20260903125006 72 242 2.0 4.0 0.00 0.79 0.68 99 1016.6
20260903124504 72 214 2.0 4.0 0.00 0.79 0.68 99 1016.5
20260903124007 72 11 1.0 7.0 0.00 0.79 0.68 99 1016.5
20260903123504 72 317 2.0 7.0 0.00 0.79 0.68 99 1016.7
20260903123005 72 48 1.0 4.0 0.00 0.79 0.68 99 1016.8
20260903122505 71 185 1.0 8.0 0.00 0.79 0.68 99 1016.8
20260903121504 71 322 1.0 3.0 0.00 0.79 0.68 99 1016.9
20260903121006 71 159 1.0 5.0 0.00 0.79 0.68 99 1016.8
20260903120504 71 204 1.0 5.0 0.00 0.79 0.68 99 1016.7
20260903120006 71 58 2.0 4.0 0.00 0.79 0.68 99 1016.3
20260903115504 71 87 1.0 4.0 0.00 0.79 0.68 99 1016.5
20260903115007 71 183 1.0 4.0 0.00 0.79 0.68 99 1017.1
20260903114504 71 233 1.0 3.0 0.01 0.79 0.68 99 1017.6
20260903114009 71 221 1.0 2.0 0.01 0.79 0.68 99 1017.8
20260903113005 70 218 0.0 2.0 0.01 0.79 0.68 99 1017.8
20260903112504 71 218 0.0 2.0 0.01 0.79 0.68 99 1017.6
20260903112006 71 278 0.0 2.0 0.01 0.79 0.68 99 1017.8
20260903111504 70 278 0.0 1.0 0.01 0.79 0.68 99 1018.2
20260903111006 70 279 0.0 2.0 0.01 0.79 0.68 99 1018.3
20260903110504 70 279 1.0 2.0 0.01 0.79 0.68 99 1018.3
20260903110008 70 279 1.0 3.0 0.01 0.79 0.68 99 1018.5
20260903105505 70 279 1.0 3.0 0.01 0.79 0.68 99 1018.5
20260903105005 70 279 1.0 2.0 0.01 0.79 0.68 99 1018.5
20260903104504 70 279 1.0 2.0 0.00 0.78 0.67 99 1018.5
20260903104010 70 279 1.0 2.0 0.00 0.78 0.67 99 1018.4
20260903103504 70 279 1.0 2.0 0.00 0.78 0.67 99 1018.2
20260903103005 70 279 0.0 1.0 0.01 0.78 0.67 99 1018.0
20260903102509 70 279 0.0 0.0 0.01 0.78 0.67 99 1017.6
20260903102005 70 279 0.0 0.0 0.01 0.78 0.67 99 1017.5
20260903101504 70 279 0.0 0.0 0.01 0.78 0.67 99 1017.9
20260903101005 70 279 0.0 0.0 0.01 0.78 0.67 99 1018.0
20260903100504 70 279 0.0 0.0 0.01 0.78 0.67 99 1018.0
20260903100010 70 279 0.0 0.0 0.01 0.78 0.67 99 1018.2
20260903095504 70 279 0.0 0.0 0.01 0.78 0.67 99 1018.2
20260903095005 70 279 0.0 0.0 0.02 0.78 0.67 98 1018.2
20260903094505 70 279 0.0 0.0 0.04 0.78 0.67 98 1018.3
20260903094008 70 279 0.0 0.0 0.08 0.78 0.67 98 1018.4
20260903093505 70 279 0.0 2.0 0.16 0.78 0.67 98 1018.6
20260903092504 70 279 0.0 3.0 0.32 0.77 0.66 98 1018.4
20260903092005 70 279 1.0 3.0 0.32 0.77 0.66 98 1018.9
20260903091007 70 227 0.0 2.0 0.32 0.77 0.66 98 1018.5
20260903090505 70 227 1.0 3.0 0.32 0.77 0.66 98 1018.6
20260903090006 70 181 0.0 3.0 0.32 0.77 0.66 98 1018.4
20260903085505 70 181 0.0 3.0 0.31 0.76 0.65 98 1018.6
20260903085006 71 181 1.0 3.0 0.31 0.76 0.65 98 1018.9
20260903084504 71 305 1.0 2.0 0.29 0.74 0.63 98 1019.7
20260903084006 71 305 1.0 4.0 0.23 0.68 0.57 98 1019.7
20260903083506 71 305 1.0 4.0 0.15 0.60 0.49 98 1019.9
20260903083007 71 306 2.0 6.0 0.08 0.53 0.42 98 1020.0
20260903082504 71 305 2.0 6.0 0.00 0.45 0.34 98 1020.0
20260903081010 71 182 0.0 0.0 0.00 0.45 0.34 98 1018.0
20260903080505 71 182 0.0 0.0 0.00 0.45 0.34 98 1017.9
20260903075504 71 182 0.0 3.0 0.00 0.45 0.34 98 1018.0
20260903075005 71 182 1.0 3.0 0.00 0.45 0.34 98 1018.1
20260903074506 71 182 0.0 0.0 0.00 0.45 0.34 98 1018.4
20260903074006 71 182 0.0 0.0 0.00 0.45 0.34 98 1018.3
20260903073504 71 182 0.0 0.0 0.00 0.45 0.34 98 1018.1
20260903073007 71 182 0.0 0.0 0.00 0.45 0.34 98 1018.1
20260903072010 71 182 0.0 0.0 0.00 0.45 0.34 98 1018.2
20260903071504 71 182 0.0 0.0 0.01 0.45 0.34 98 1018.1
20260903071004 71 182 0.0 0.0 0.02 0.45 0.34 98 1018.3
20260903070504 71 182 0.0 2.0 0.04 0.45 0.34 98 1018.3
20260903070006 71 182 0.0 1.0 0.15 0.45 0.34 98 1018.4
20260903065503 71 182 0.0 1.0 0.21 0.45 0.34 98 1018.4
20260903065008 71 182 0.0 1.0 0.22 0.45 0.34 98 1018.6
20260903064503 71 182 0.0 0.0 0.25 0.45 0.34 98 1018.5
20260903064005 71 182 0.0 2.0 0.31 0.45 0.34 98 1018.5
20260903063504 71 182 0.0 2.0 0.34 0.45 0.34 98 1018.4
20260903062503 71 182 0.0 2.0 0.34 0.45 0.34 98 1018.5
20260903062007 71 182 0.0 2.0 0.34 0.45 0.34 98 1018.4
20260903061503 71 182 1.0 2.0 0.33 0.44 0.33 98 1018.7
20260903061004 71 182 0.0 2.0 0.32 0.43 0.32 98 1018.8
20260903055503 71 293 0.0 0.0 0.13 0.24 0.13 98 1020.1
20260903055005 71 293 0.0 2.0 0.12 0.23 0.12 98 1020.2
20260903054004 71 293 2.0 5.0 0.03 0.14 0.03 98 1020.1
20260903053505 71 267 2.0 3.0 0.00 0.11 0.00 98 1019.5
20260903053006 71 292 0.0 2.0 0.00 0.11 0.00 98 1019.1
20260903052503 71 165 0.0 1.0 0.00 0.11 0.00 98 1018.8
20260903052005 71 165 0.0 1.0 0.00 0.11 0.00 98 1018.7
20260903051503 71 165 0.0 0.0 0.00 0.11 0.00 98 1018.6
20260903051004 71 165 0.0 1.0 0.00 0.11 0.00 98 1018.5
20260903050503 71 165 0.0 1.0 0.00 0.11 0.00 98 1018.7
20260903050006 71 165 0.0 1.0 0.00 0.11 0.00 98 1018.8
20260903045503 71 165 0.0 1.0 0.00 0.11 0.00 98 1018.7
20260903045004 71 165 0.0 1.0 0.00 0.11 0.00 98 1018.8
20260903044504 71 165 0.0 0.0 0.00 0.11 0.00 98 1018.7
20260903044004 71 165 0.0 0.0 0.00 0.11 0.00 98 1018.7
20260903043503 72 165 0.0 1.0 0.00 0.11 0.00 98 1018.7
20260903043007 72 165 0.0 1.0 0.00 0.11 0.00 98 1018.9
20260903042503 72 165 0.0 0.0 0.00 0.11 0.00 98 1018.9
20260903042003 72 165 0.0 5.0 0.00 0.11 0.00 98 1018.9
20260903041508 72 165 1.0 5.0 0.00 0.11 0.00 98 1018.9
20260903040505 72 177 0.0 0.0 0.00 0.11 0.00 98 1019.2
20260903040010 72 177 0.0 0.0 0.00 0.11 0.00 98 1019.2
20260903035505 72 177 0.0 0.0 0.00 0.11 0.11 98 1019.3